www.pogodaiklimat.ru

Погода и климат >> Архив погоды >> Украина >> Харьков


АРХИВ ПОГОДЫ в Харькове

Время (UTC), дата Ветер
(напр.,м/с)
 
Видим.   Явления Облачность Т
(С)
Тd
(С)
f
(%)
Тe
(С)
Тes
(С)
Комфортность P
(гПа)
Po
(гПа)
Тmin
(С)
Tmax
(С)
R
(мм)
R24
(мм)
S
(см)
12 14.03 Ю 4 10 км 9/0
[Ac trans Ci]
+5.6 -6.3 42 +2 +5 по сезону 1017.9 998.8
15 14.03 ЮВ 4 10 км 9/0
[Cs]
+5.2 -7.0 41 +2 +2 тепло 1017.0 997.9
18 14.03 В 4 10 км 9/0
[Cs]
+1.9 -5.7 57 -3 -3 по сезону 1017.0 997.7 +6.2
21 14.03 В 4 10 км 4/0
[Cc]
-0.3 -5.0 71 -6 -6 по сезону 1016.1 996.7
00 15.03 В 4 10 км 4/4 1000 м
[Sc]
-1.4 -4.7 78 -7 -7 по сезону 1015.7 996.2
03 15.03 В 5 10 км в посл. час дождь 10/10 1050 м
[Sc]
+0.2 -3.1 78 -6 -6 по сезону 1014.1 994.7
06 15.03 В 6 10 км в посл. час крупа {ливн. осадки, дождь} 10/10 930 м
[Sc]
+0.6 -3.0 77 -6 -6 по сезону 1013.3 994.0 -1.4 0.0
09 15.03 В 6 5000 м в посл. час зёрна 10/10 210 м
[Sc]
+0.1 -0.7 94 -7 -7 прохладно 1012.3 993.0
12 15.03 В 6 10 км {снег} 10/10 270 м
[Sc]
+0.3 -1.1 90 -6 -6 прохладно 1011.6 992.3
15 15.03 В 5 10 км 10/10 240 м
[Sc]
+0.2 -1.5 88 -6 -6 прохладно 1010.9 991.6
18 15.03 В 4 3400 м дымка 10/10 120 м
[St]
+0.1 -0.7 94 -6 -6 по сезону 1010.8 991.5 +0.6 0.0
21 15.03 В 1 300 м туман ?/? -0.1 -0.1 100 -2 -2 по сезону 1010.4 991.1
00 16.03 штиль 0 1600 м в посл. час туман 10/10 90 м
[St]
-0.1 -0.4 98 -2 -2 по сезону 1009.4 990.1
03 16.03 штиль 0 7000 м дымка 10/10 240 м
[St]
0.0 -1.1 92 -1 -1 по сезону 1008.7 989.4
06 16.03 ЮВ 2 10 км 10/10 330 м
[St]
+0.7 -0.7 90 -3 -3 по сезону 1007.9 988.7 -0.1
09 16.03 Ю 3 10 км 6/6 630 м
[Sc]
+4.2 -0.9 69 +1 +4 по сезону 1006.6 987.7
12 16.03 Ю 5 10 км 6/6 1050 м
[Sc]
+7.5 -1.7 52 +4 +5 тепло 1003.8 985.1
15 16.03 ЮВ 4 10 км 8/0
[Ac trans Ci]
+7.6 -1.3 53 +5 +5 тепло 1002.9 984.2
18 16.03 В 6 10 км 8/0
[Ac trans Ci fib]
+3.5 +0.9 83 -2 -2 по сезону 1002.9 984.0 +9.0
21 16.03 ЮВ 5 10 км в посл. час ливневой дождь 10/10 960 м
[Cb cap]
+4.6 +0.5 75 0 0 по сезону 1002.6 983.8
00 17.03 ЮВ 4 10 км слаб. ливневой дождь 10/10 500 м
[Cb cap]
+3.7 +1.9 88 -1 -1 по сезону 1002.8 983.9 0.3
03 17.03 ЮВ 2 7000 м слаб. дождь 10/8 270 м
[Frnb As op]
+2.4 +1.9 96 -1 -1 по сезону 1003.9 984.9
06 17.03 Ю 1 9000 м дымка {ливн. осадки, дождь} 10/10 300 м
[Sc]
+3.8 +3.3 97 +2 +2 тепло 1006.5 987.5 +2.4 0.8
09 17.03 З 2 10 км 9/9 630 м
[Sc]
+6.6 +2.8 77 +4 +5 тепло 1008.5 989.7
12 17.03 З 3 10 км 10/10 1140 м
[Sc]
+6.8 +1.9 71 +4 +4 тепло 1010.4 991.6
15 17.03 З 1 10 км 9/4 600 м
[Sc Ac trans]
+6.9 +1.8 70 +6 +6 тепло 1012.9 994.0
18 17.03 ЮВ 2 10 км 9/6 930 м
[Sc Ac trans]
+5.4 +1.6 76 +3 +3 тепло 1015.6 996.6 +7.5
21 17.03 В 2 5000 м дымка 3/0
[Ac trans]
+3.3 +2.3 93 0 0 по сезону 1016.9 997.7
00 18.03 В 3 1900 м дымка ясно +1.3 +1.0 98 -3 -3 по сезону 1018.6 999.2
03 18.03 В 1 <100 м туман ?/? -3.0 -3.0 100 -6 -6 по сезону 1020.4 1000.7
06 18.03 В 2 100 м туман ?/? -0.3 -0.3 100 -4 -4 по сезону 1022.2 1002.6 -3.4
09 18.03 ЮВ 4 10 км {туман} 5/3 300 м
[St Ci fib]
+6.4 +3.6 82 +3 +7 тепло 1023.0 1003.9
12 18.03 Ю 6 10 км {туман} 8/8 960 м
[Cu hum]
+11.0 -0.4 45 +8 +9 тепло 1022.0 1003.2
15 18.03 ЮВ 6 10 км 3/3 1000 м
[Sc diur, vesp Ci fib]
+11.2 -0.5 44 +9 +9 тепло 1021.5 1002.7
18 18.03 ЮВ 4 10 км ясно +5.6 +0.1 68 +2 +2 тепло 1023.5 1004.3 +13.0
21 18.03 ЮВ 4 10 км ясно +3.6 +0.1 78 -1 -1 по сезону 1024.2 1004.9
00 19.03 ЮВ 4 10 км ясно +2.2 -0.9 80 -3 -3 по сезону 1024.8 1005.4
03 19.03 ЮВ 4 10 км ясно -0.1 -1.6 90 -6 -6 по сезону 1025.6 1006.0
06 19.03 ЮВ 4 10 км 3/0
[Ci fib]
+4.6 +2.1 84 0 +2 по сезону 1026.2 1006.9 -0.9
09 19.03 Ю 6 10 км 6/6 1020 м
[Cu hum]
+11.7 +1.5 50 +9 +11 тепло 1025.4 1006.6
12 19.03 Ю 4 10 км 8/8 1200 м
[Cu hum]
+13.4 +1.2 43 +12 +13 тепло 1024.1 1005.4
15 19.03 Ю 3 10 км 3/0
[Ac trans]
+13.3 -0.6 38 +12 +13 тепло 1023.8 1005.1
18 19.03 Ю 2 10 км 3/0
[Ac trans]
+9.0 -0.1 53 +8 +8 тепло 1025.0 1006.0 +14.3
21 19.03 ЮВ 2 10 км 5/0
[Ac trans Ci fib]
+6.0 0.0 65 +4 +4 тепло 1025.5 1006.3
00 20.03 ЮВ 2 10 км 8/0
[Ac trans Ci fib]
+2.7 +0.3 84 -0 -0 тепло 1025.6 1006.2
03 20.03 ЮВ 2 10 км 9/0
[Ac trans]
+3.6 +1.5 86 +1 +1 тепло 1025.4 1006.1
06 20.03 ЮВ 3 10 км 9/0
[Ac trans]
+4.4 +1.9 84 +1 +2 тепло 1025.8 1006.5 +2.5
09 20.03 ЮВ 3 10 км 6/0
[Ac und]
+11.8 +2.9 54 +10 +15 тепло 1025.0 1006.2
12 20.03 СЗ 4 10 км 9/8 1000 м
[Cu hum Ac trans]
+12.6 +2.2 49 +11 +12 тепло 1024.0 1005.3
15 20.03 С 5 10 км 10/10 1000 м
[Sc]
+8.4 +4.5 76 +5 +5 тепло 1024.7 1005.7
18 20.03 С 4 10 км слаб. ливневой дождь 10/10 210 м
[Cb cap]
+4.6 +3.4 92 0 0 по сезону 1026.6 1007.3 +14.2 1
21 20.03 С 4 10 км {ливн. осадки} 10/10 300 м
[Sc]
+3.8 +2.3 90 -1 -1 по сезону 1026.9 1007.6
00 21.03 СЗ 2 10 км {ливн. осадки} 9/9 1200 м
[Sc]
+3.6 +2.3 91 +1 +1 тепло 1026.8 1007.4 0.4
03 21.03 З 2 100 м туман ясно +0.9 +0.9 100 -3 -3 по сезону 1026.4 1006.9
06 21.03 З 2 10 км в посл. час туман 6/0
[Ci fib]
+3.0 +1.4 89 -0 +3 по сезону 1026.0 1006.6 +0.1 0.4
09 21.03 З 6 10 км 9/4 1000 м
[Sc Ac trans]
+6.7 -4.6 44 +3 +4 по сезону 1024.6 1005.5

 

Местоположение метеостанции Харьков (Харьковская область, Украина): широта 49.97 долгота 36.13 высота над уровнем моря 155 м.

В архиве по умолчанию представлена погода в Харькове за последнюю неделю. Архивные данные за месяц целиком и за предыдущие месяцы, начиная с января 2011 года, Вы можете получить, выбрав интересующий диапазон дат из раскрывающегося списка и нажав кнопку "Ввод!".


*Определитесь, кто Вы:
робот инопланетянин человек

Внимание! Время в таблицах - всемирное. Для получения местного времени необходимо прибавить поправку, которая равна 2 ч.

Смотрите также архив погоды в соседних городах и на ближайших метеорологических станциях:

Погода в Золочеве (Львовская область, Украина) (39 км)
Погода в Боходухове (Харьковская область, Украина) (50 км)
Погода в Комсомольском (Донецкая область, Украина) (50 км)
Погода в Коломаке (Харьковская область, Украина) (66 км)
Погода в Белгороде (Белгородская область, Россия) (80 км)
Погода в Краснограде (Харьковская область, Украина) (82 км)
Погода в Великом Бурлуке (Харьковская область, Украина) (90 км)
Погода в Готне (Белгородская область, Россия) (96 км)
Погода в Купянске (Харьковская область, Украина) (119 км)
Погода в Лозовой (Харьковская область, Украина) (120 км)

Пояснения к столбцам:

Ветер - указаны скорость ветра в м/с - средняя за 10 мин, порывы в срок и между сроками (в фигурных скобках) и направление, откуда дует ветер: С - северный, СВ - северо-восточный, В - восточный, ЮВ - юго-восточный, Ю - южный, ЮЗ - юго-западный, З - западный, СЗ - северо-западный.
Видимость - горизонтальная дальность видимости в метрах или километрах. При видимости от 1 до 10 км при отсутствии осадков обычно наблюдается дымка, при ухудшении видимости до 1 км и менее - туман. В сухую погоду видимость может ухудшаться дымом, пылью или мглою.
Явления - указаны атмосферные явления, наблюдавшиеся в срок или в последний час перед сроком; фигурными скобками обозначены явления, наблюдавшиеся между сроками (за 1-3 часа до срока); квадратными скобками обозначены град или гололедные отложения с указанием их диаметра в мм.
Облачность - указаны через наклонную черту общая и нижняя облачность в баллах и высота нижней границы облаков в метрах; квадратными скобками обозначены формы облаков: Ci - перистые, Cs - перисто-слоистые, Cc - перисто-кучевые, Ac - высококучевые, As - высокослоистые, Sc - слоисто-кучевые, Ns - слоисто-дождевые, Cu - кучевые, Cb - кучево-дождевые. Подробнее классификацию облаков см. в Атласе облаков (PDF).
T - Температура воздуха - температура, измеренная на высоте 2 м над землей.
Td - Температура точки росы - температура, при понижении до которой содержащийся в воздухе водяной пар достигнет насыщения.
f - Относительная влажность воздуха - влажноcть воздуха, измеренная на высоте 2 м над землей.
Te - Эффективная температура - температура, которую ощущает одетый по сезону человек в тени. Характеристика душности погоды. При расчете учитывается влияние влажности воздуха и скорости ветра на теплоощущения человека.
Tes - Эффективная температура на солнце - температура, которую ощущает человек, с поправкой на солнечный нагрев. Характеристика знойности погоды. Зависит от высоты солнца над горизонтом, облачности и скорости ветра. Ночью, в пасмурную погоду, а также при ветре 12 м/с и более поправка равна нулю.
P - Атмосферное давление - приведенное к уровню моря атмосферное давление.
Po - Атмосферное давление - измеренное на уровне метеостанции атмосферное давление.
Tmin - Минимальная температура - минимум температуры воздуха на высоте 2 м над землей.
Tmax - Максимальная температура - максимум температуры воздуха на высоте 2 м над землей.
R - Количество осадков - Количество выпавших осадков за период времени, мм. При наведении курсора мыши на число - период времени, за который выпало указанное количество осадков.
R24 - Количество осадков - Количество выпавших осадков за 24 часа, мм.
S - Снежный покров - Высота снежного покрова, см. При наведении курсора мыши на число - состояние снежного покрова и степень покрытия местности в баллах.